• In Deutschland
  • Länderverzeichnis
  • Für 7 Tage
  • Wassertemperatur
  • Satellitenkarten
  • Wetterkarte
  • Widgets
  • user-avatar
    Anmelden

    Stündliche Wetter Chongru

    Heute, 23 September, Sonntag

    Zeit Temperatur Niederschläge Wind Luftdruck Luftfeuchtigkeit
    00:00 +25°C° 0.3 mm 1 m/S 738 mmHg 97%
    01:00 +25°C° 0.3 mm 1 m/S 738 mmHg 97%
    02:00 +25°C° 0 mm 1 m/S 738 mmHg 98%
    03:00 +25°C° 0.3 mm 1 m/S 738 mmHg 98%
    04:00 +25°C° 0.3 mm 1 m/S 737 mmHg 98%
    05:00 +24°C° 0.3 mm 1 m/S 737 mmHg 98%
    06:00 +25°C° 0.5 mm 1 m/S 737 mmHg 94%
    07:00 +26°C° 0.5 mm 1 m/S 737 mmHg 91%
    08:00 +27°C° 0 mm 2 m/S 738 mmHg 88%
    09:00 +28°C° 2.1 mm 2 m/S 738 mmHg 86%
    10:00 +29°C° 2.1 mm 2 m/S 738 mmHg 85%
    11:00 +29°C° 2.1 mm 2 m/S 737 mmHg 84%
    12:00 +28°C° 2.8 mm 2 m/S 737 mmHg 87%
    13:00 +28°C° 2.8 mm 3 m/S 737 mmHg 89%
    14:00 +27°C° 0 mm 3 m/S 737 mmHg 93%
    15:00 +26°C° 2.9 mm 3 m/S 737 mmHg 94%
    16:00 +26°C° 2.9 mm 3 m/S 737 mmHg 95%
    17:00 +25°C° 2.9 mm 3 m/S 737 mmHg 96%
    18:00 +25°C° 3.8 mm 3 m/S 737 mmHg 96%
    19:00 +25°C° 3.8 mm 3 m/S 737 mmHg 97%
    20:00 +24°C° 3.8 mm 3 m/S 737 mmHg 97%
    21:00 +24°C° 6 mm 3 m/S 737 mmHg 97%
    22:00 +24°C° 6 mm 3 m/S 738 mmHg 98%
    23:00 +24°C° 6 mm 3 m/S 738 mmHg 98%

    Morgen, 24 September, Montag

    Zeit Temperatur Niederschläge Wind Luftdruck Luftfeuchtigkeit
    00:00 +24°C° 2.1 mm 3 m/S 737 mmHg 97%
    01:00 +22°C° 2.1 mm 4 m/S 737 mmHg 97%
    02:00 +22°C° 2.1 mm 4 m/S 737 mmHg 97%
    03:00 +22°C° 0.2 mm 4 m/S 737 mmHg 96%
    04:00 +22°C° 0.2 mm 4 m/S 737 mmHg 96%
    05:00 +21°C° 0.2 mm 4 m/S 737 mmHg 96%
    06:00 +22°C° 0 mm 3 m/S 737 mmHg 94%
    07:00 +24°C° 0 mm 3 m/S 737 mmHg 92%
    08:00 +24°C° 0 mm 3 m/S 737 mmHg 90%
    09:00 +25°C° 0.1 mm 4 m/S 737 mmHg 82%
    10:00 +27°C° 0.1 mm 4 m/S 738 mmHg 74%
    11:00 +28°C° 0.1 mm 4 m/S 738 mmHg 66%
    12:00 +28°C° 0.2 mm 5 m/S 737 mmHg 69%
    13:00 +28°C° 0.2 mm 5 m/S 737 mmHg 72%
    14:00 +28°C° 0.2 mm 5 m/S 736 mmHg 74%
    15:00 +27°C° 0.2 mm 5 m/S 736 mmHg 78%
    16:00 +26°C° 0.2 mm 5 m/S 736 mmHg 81%
    17:00 +26°C° 0.2 mm 5 m/S 736 mmHg 85%
    18:00 +25°C° 0.1 mm 5 m/S 736 mmHg 87%
    19:00 +23°C° 0.1 mm 4 m/S 737 mmHg 90%
    20:00 +22°C° 0.1 mm 4 m/S 737 mmHg 93%
    21:00 +21°C° 0.1 mm 4 m/S 737 mmHg 93%
    22:00 +21°C° 0.1 mm 4 m/S 737 mmHg 93%
    23:00 +21°C° 0.1 mm 4 m/S 737 mmHg 94%

    übermorgen, 25 September, Dienstag

    Zeit Temperatur Niederschläge Wind Luftdruck Luftfeuchtigkeit
    00:00 +20°C° 0.1 mm 4 m/S 737 mmHg 93%
    01:00 +20°C° 0.1 mm 4 m/S 737 mmHg 92%
    02:00 +20°C° 0.1 mm 4 m/S 736 mmHg 91%
    03:00 +19°C° 0 mm 4 m/S 736 mmHg 91%
    04:00 +19°C° 0 mm 4 m/S 736 mmHg 91%
    05:00 +18°C° 0 mm 4 m/S 736 mmHg 91%
    06:00 +20°C° 0 mm 4 m/S 736 mmHg 87%
    07:00 +21°C° 0 mm 4 m/S 736 mmHg 83%
    08:00 +22°C° 0 mm 4 m/S 737 mmHg 78%
    09:00 +23°C° 0 mm 5 m/S 737 mmHg 71%
    10:00 +26°C° 0 mm 5 m/S 737 mmHg 63%
    11:00 +27°C° 0 mm 5 m/S 737 mmHg 56%
    12:00 +28°C° 0 mm 5 m/S 736 mmHg 55%
    13:00 +28°C° 0 mm 5 m/S 736 mmHg 53%
    14:00 +29°C° 0 mm 5 m/S 735 mmHg 52%
    15:00 +28°C° 0 mm 5 m/S 735 mmHg 58%
    16:00 +27°C° 0 mm 5 m/S 735 mmHg 64%
    17:00 +26°C° 0 mm 5 m/S 735 mmHg 70%
    18:00 +23°C° 0 mm 5 m/S 736 mmHg 75%
    19:00 +22°C° 0 mm 5 m/S 736 mmHg 79%
    20:00 +21°C° 0 mm 5 m/S 736 mmHg 84%
    21:00 +20°C° 0 mm 5 m/S 737 mmHg 85%
    22:00 +20°C° 0 mm 5 m/S 737 mmHg 87%
    23:00 +19°C° 0 mm 5 m/S 737 mmHg 89%

    26 September, Mittwoch

    Zeit Temperatur Niederschläge Wind Luftdruck Luftfeuchtigkeit
    00:00 +19°C° 0 mm 4 m/S 736 mmHg 90%
    01:00 +18°C° 0 mm 4 m/S 736 mmHg 90%
    02:00 +18°C° 0 mm 4 m/S 735 mmHg 91%
    03:00 +18°C° 0 mm 4 m/S 735 mmHg 91%
    04:00 +17°C° 0 mm 4 m/S 735 mmHg 92%
    05:00 +17°C° 0 mm 4 m/S 735 mmHg 92%
    06:00 +19°C° 0 mm 4 m/S 736 mmHg 87%
    07:00 +20°C° 0 mm 4 m/S 736 mmHg 82%
    08:00 +21°C° 0 mm 4 m/S 736 mmHg 77%
    09:00 +23°C° 0 mm 4 m/S 736 mmHg 68%
    10:00 +25°C° 0 mm 4 m/S 736 mmHg 59%
    11:00 +27°C° 0 mm 4 m/S 736 mmHg 50%
    12:00 +28°C° 0 mm 4 m/S 736 mmHg 49%
    13:00 +28°C° 0 mm 4 m/S 735 mmHg 48%
    14:00 +28°C° 0 mm 5 m/S 735 mmHg 47%
    15:00 +27°C° 0 mm 4 m/S 735 mmHg 54%
    16:00 +26°C° 0 mm 4 m/S 734 mmHg 61%
    17:00 +25°C° 0 mm 4 m/S 734 mmHg 68%
    18:00 +23°C° 0 mm 4 m/S 735 mmHg 73%
    19:00 +21°C° 0 mm 4 m/S 735 mmHg 78%
    20:00 +20°C° 0 mm 4 m/S 736 mmHg 83%
    21:00 +19°C° 0 mm 4 m/S 736 mmHg 84%
    22:00 +19°C° 0 mm 4 m/S 736 mmHg 86%
    23:00 +18°C° 0 mm 4 m/S 736 mmHg 87%

    27 September, Donnerstag

    Zeit Temperatur Niederschläge Wind Luftdruck Luftfeuchtigkeit
    00:00 +18°C° 0 mm 4 m/S 736 mmHg 88%
    01:00 +18°C° 0 mm 4 m/S 735 mmHg 88%
    02:00 +17°C° 0 mm 4 m/S 735 mmHg 89%
    03:00 +17°C° 0 mm 4 m/S 735 mmHg 88%
    04:00 +17°C° 0 mm 4 m/S 735 mmHg 87%
    05:00 +17°C° 0 mm 4 m/S 735 mmHg 86%
    06:00 +19°C° 0 mm 4 m/S 735 mmHg 82%
    07:00 +20°C° 0 mm 4 m/S 736 mmHg 77%
    08:00 +21°C° 0 mm 4 m/S 736 mmHg 72%
    09:00 +23°C° 0 mm 4 m/S 736 mmHg 68%
    10:00 +26°C° 0 mm 4 m/S 736 mmHg 63%
    11:00 +27°C° 0 mm 5 m/S 736 mmHg 58%
    12:00 +28°C° 0 mm 5 m/S 735 mmHg 57%
    13:00 +28°C° 0 mm 5 m/S 734 mmHg 57%
    14:00 +29°C° 0 mm 5 m/S 734 mmHg 56%
    15:00 +28°C° 0 mm 5 m/S 734 mmHg 61%
    16:00 +27°C° 0 mm 5 m/S 734 mmHg 66%
    17:00 +26°C° 0 mm 5 m/S 734 mmHg 71%
    18:00 +23°C° 0 mm 4 m/S 734 mmHg 76%
    19:00 +22°C° 0 mm 4 m/S 735 mmHg 81%
    20:00 +21°C° 0 mm 4 m/S 735 mmHg 86%
    21:00 +20°C° 0 mm 4 m/S 735 mmHg 87%
    22:00 +20°C° 0 mm 4 m/S 735 mmHg 89%
    23:00 +19°C° 0 mm 4 m/S 735 mmHg 90%

    28 September, Freitag

    Zeit Temperatur Niederschläge Wind Luftdruck Luftfeuchtigkeit
    00:00 +19°C° 0 mm 4 m/S 735 mmHg 91%
    01:00 +18°C° 0 mm 4 m/S 734 mmHg 91%
    02:00 +18°C° 0 mm 4 m/S 734 mmHg 92%
    03:00 +18°C° 0 mm 4 m/S 734 mmHg 92%
    04:00 +18°C° 0 mm 4 m/S 734 mmHg 92%
    05:00 +18°C° 0 mm 3 m/S 735 mmHg 92%
    06:00 +19°C° 0 mm 4 m/S 735 mmHg 87%
    07:00 +20°C° 0 mm 4 m/S 735 mmHg 82%
    08:00 +22°C° 0 mm 4 m/S 736 mmHg 77%
    09:00 +25°C° 0 mm 4 m/S 735 mmHg 70%
    10:00 +26°C° 0 mm 4 m/S 735 mmHg 62%
    11:00 +28°C° 0 mm 4 m/S 735 mmHg 55%
    12:00 +29°C° 0 mm 4 m/S 735 mmHg 53%
    13:00 +29°C° 0 mm 5 m/S 734 mmHg 51%
    14:00 +30°C° 0 mm 5 m/S 734 mmHg 50%
    15:00 +29°C° 0 mm 5 m/S 734 mmHg 56%
    16:00 +27°C° 0 mm 5 m/S 734 mmHg 63%
    17:00 +26°C° 0 mm 5 m/S 734 mmHg 69%
    18:00 +25°C° 0 mm 5 m/S 734 mmHg 74%
    19:00 +22°C° 0 mm 5 m/S 734 mmHg 79%
    20:00 +21°C° 0 mm 5 m/S 735 mmHg 84%
    21:00 +20°C° 0 mm 5 m/S 734 mmHg 85%
    22:00 +20°C° 0 mm 5 m/S 734 mmHg 86%
    23:00 +19°C° 0 mm 5 m/S 734 mmHg 87%
    Mehr zeigen